{"data":{"norad_id":38992,"epoch":"2026-05-25T03:50:46.672224Z","epoch_age_seconds":71241,"freshness":"FRESH","line1":"1 38992U 12062B   26145.16026241  .00000127  00000+0  00000+0 0  9990","line2":"2 38992   0.0672 355.0648 0002998  68.8810 258.0996  1.00269963 49590","mean_motion":1.00269963,"eccentricity":0.0002998,"inclination_deg":0.0672,"raan_deg":355.0648,"arg_perigee_deg":68.881,"mean_anomaly_deg":258.0996,"bstar":0,"rev_number":4959,"period_min":1436.1229992675,"perigee_km":35774.464601892,"apogee_km":35799.74688144,"semimajor_km":42165.242741666,"source":"CELESTRAK","updated_at":"2026-05-25T13:38:13.938892Z"}}